Location: Acquafredda
(45.3000°N, 10.4000°E)
Time: 21:31:29
(UTC+00:00)

Daily predictions for brighter satellites

Satellite Brightness Start Highest point End
(mag) Time Altitude Azimuth Time Altitude Azimuth Time Altitude Azimuth
NOSS 2-1 (C) 4.2 19:36:02 10° NW 19:40:39 88° SW 19:47:13 10° SE
Meteor 1-24 Rocket 3.6 19:39:25 10° S 19:44:45 83° E 19:50:16 10° NNE
Cosmos 1271 Rocket 2.8 19:45:00 10° N 19:48:57 68° ENE 19:52:51 10° SSE
H-2A R/B 4.0 19:46:11 10° SSW 19:49:36 31° W 19:53:03 10° NNW
Cosmos 2082 Rocket 3.9 19:46:52 10° SE 19:49:37 14° E 19:52:23 10° ENE
NOSS 2-1 (D) 4.3 19:46:27 10° NW 19:51:07 76° SW 19:57:46 10° SSE
USA 276 3.6 19:49:44 10° W 19:52:35 37° NNW 19:55:28 10° ENE
H-2A R/B 2.3 19:51:04 10° NNE 19:55:32 82° WNW 20:00:02 10° SSW
USA 245 3.9 19:53:09 10° SE 19:56:59 37° ENE 20:00:08 10° N
Cosmos 1536 Rocket 4.0 19:52:55 10° SSE 19:57:01 43° E 20:01:09 10° NNE
Cosmos 1455 2.2 19:54:30 10° N 19:58:20 82° E 20:02:09 10° S
Cosmos 1709 Rocket 4.5 19:54:28 10° NNW 20:00:38 65° W 20:06:50 10° S
CARTOSAT-1 3.7 19:57:11 10° SSE 20:01:26 60° ENE 20:05:41 10° N
ARIANE 5 R/B 4.5 19:58:55 10° ESE 20:01:52 18° ENE 20:04:49 10° NNE
Cosmos 1975 Rocket 4.3 19:58:53 10° SSW 20:03:08 45° WNW 20:07:23 10° N
SL-24 R/B 4.3 19:59:35 10° SSE 20:03:56 82° ENE 20:08:56 10° NNW
Cosmos 1741 Rocket 4.3 19:59:40 10° NNW 20:04:57 57° ENE 20:09:58 11° SE
ATLAS 5 CENTAUR R/B 3.7 19:53:56 10° NW 20:06:18 54° WSW 20:10:11 10° SSE
Tiangong 3.4 20:06:03 10° WSW 20:07:39 13° SSW 20:09:15 10° S
Cosmos 2315 Rocket 4.5 20:01:34 10° SSW 20:07:50 67° W 20:14:07 10° N
SPOT 3 Rocket 3.7 20:05:46 10° SSE 20:10:54 67° ENE 20:16:06 10° N
Ariane Rocket 3.1 20:07:24 10° S 20:12:29 78° WSW 20:17:36 10° NNW
Cosmos 2074 Rocket 4.1 20:07:18 10° N 20:13:32 62° E 20:19:38 10° SSE
Cosmos 1544 Rocket 4.2 20:15:58 10° NNW 20:20:13 56° W 20:24:28 10° S
Lacrosse 5 rocket 3.8 20:20:34 10° WSW 20:21:53 11° WSW 20:23:12 10° SW
GEOS 3 Rocket 4.3 20:17:26 10° SSE 20:22:19 46° WSW 20:27:14 10° NW
Cosmos 1656 3.8 20:17:34 10° NNW 20:23:02 71° WSW 20:28:14 12° SSE
Nadezhda 1 Rocket 4.3 20:18:50 10° SSE 20:24:36 47° E 20:30:22 10° NNE
ATLAS 2AS CENTAUR R/B 3.6 20:23:03 10° NW 20:29:32 41° WSW 20:35:38 10° S
MetOp-B 4.5 20:24:29 10° S 20:29:48 66° WSW 20:35:09 10° NNW
Cosmos 1850 Rocket 4.0 20:26:41 10° NNW 20:31:55 83° WSW 20:36:19 14° SSE
SL-16 R/B 4.4 20:30:43 10° N 20:33:46 14° NE 20:36:48 10° ENE
Cosmos 1980 Rocket 3.1 20:29:25 10° NNW 20:34:46 39° NE 20:39:07 15° ESE
Cosmos 1697 Rocket 2.8 20:29:33 10° NNW 20:35:11 72° ENE 20:39:32 17° SE
Cosmos 2344 4.5 20:28:39 10° NW 20:37:27 68° NE 20:48:13 14° SE
Cosmos 1331 Rocket 4.0 20:32:20 10° S 20:37:36 71° ESE 20:42:54 10° NNE
SL-8 R/B 3.7 20:32:57 10° WNW 20:37:45 72° SSW 20:41:22 17° SE
Cosmos 2369 4.3 20:32:46 10° NNW 20:38:18 46° ENE 20:42:35 16° SE
COSMOS 2406 3.4 20:37:22 10° S 20:42:56 53° ESE 20:48:31 10° NE
Spot 2 Rocket 3.5 20:38:46 15° SSE 20:42:59 85° ENE 20:48:07 10° NNW
Cosmos 2154 Rocket 4.0 20:38:54 10° N 20:45:09 76° E 20:50:11 16° SSE
X-37B 0.3 20:43:06 10° W 20:45:52 59° SSW 20:47:01 30° SE
ATLAS 5 CENTAUR R/B 3.1 20:48:00 14° E 20:48:00 14° E 20:49:38 10° ENE
CZ-2C R/B 3.7 20:44:01 10° NNE 20:48:31 59° E 20:51:58 16° S
SPOT 5 2.7 20:49:45 18° S 20:53:01 78° WSW 20:57:21 10° NNW
Cosmos 1703 4.0 20:51:56 10° SSW 20:55:41 51° WNW 20:59:27 10° N
Cosmos 2084 Rocket 3.3 20:53:54 10° NW 20:57:49 72° NE 21:00:03 25° SE
RESURS DK-1 3.3 20:54:46 10° NW 20:58:39 40° WSW 21:01:19 18° S
Cosmos 1833 Rocket 2.9 20:53:29 10° SSW 20:59:04 72° WNW 21:04:44 10° NNE
Terra 1.8 20:56:28 21° SSE 20:59:40 83° ENE 21:04:27 10° NNW
CZ-4B R/B 4.1 21:00:33 10° NW 21:02:04 14° WNW 21:03:35 10° W
Helios 1A Rocket 3.2 21:01:06 20° S 21:03:49 62° WSW 21:07:54 10° NNW
ASTEX 1 4.2 20:59:24 10° NNE 21:04:02 36° E 21:06:20 24° SE
Cosmos 1110 Rocket 4.5 20:59:34 10° SSW 21:04:47 63° WNW 21:10:04 10° NNE
ERS-1 Rocket 3.2 21:02:33 19° S 21:06:14 69° WSW 21:11:16 10° NNW
Cosmos 1892 Rocket 3.7 21:04:14 25° SSE 21:06:38 57° E 21:10:57 10° NNE
Resurs 01 Rocket 4.2 21:04:37 10° SW 21:07:10 15° W 21:09:44 10° NW
Cosmos 1302 Rocket 4.0 21:03:52 16° S 21:08:02 64° ESE 21:13:11 10° NNE
Cosmos 2322 Rocket 4.3 21:05:46 10° N 21:09:38 18° NE 21:13:29 10° E
Cosmos 2228 3.8 21:08:12 10° NNW 21:12:16 46° W 21:15:16 17° SSW
Cosmos 2058 Rocket 3.5 21:09:01 10° N 21:13:20 50° ENE 21:15:19 29° SE
Cosmos 1825 3.5 21:15:03 23° ESE 21:15:33 23° E 21:18:35 10° NE
Cosmos 1408 2.6 21:16:14 39° SE 21:17:09 52° E 21:20:31 10° NNE
Lacrosse 5 4.2 21:17:24 10° W 21:19:02 11° WSW 21:20:41 10° SW
Meteor 1-11 4.2 21:15:39 23° S 21:19:09 64° E 21:24:41 10° NNE
Cosmos 2278 4.2 21:15:29 10° NNW 21:21:04 52° ENE 21:24:23 24° SE
Cosmos 2366 rocket 4.4 21:17:41 10° N 21:23:51 51° ENE 21:27:19 26° SE
Cosmos 968 Rocket 3.4 21:18:38 10° NNW 21:23:53 87° ENE 21:26:36 29° SSE
Cosmos 1328 4.3 21:22:05 18° SSW 21:24:55 58° W 21:28:53 10° N
Cosmos 2218 Rocket 4.4 21:21:04 10° N 21:27:21 54° ENE 21:30:50 26° SE
USA 276 3.5 21:25:56 10° WNW 21:28:47 35° N 21:31:01 14° ENE
Cosmos 2082 Rocket 2.2 21:27:23 11° SSW 21:32:51 90° WNW 21:38:35 10° NNE
SJ 16-02 3.5 21:30:02 10° NNE 21:33:01 17° NE 21:35:23 12° E
BREEZE-M DEB (TANK) 4.5 21:15:27 10° SW 21:33:10 72° SSE 21:37:41 10° ENE
Cosmos 1867 3.5 21:28:18 10° NW 21:33:48 88° NE 21:36:30 31° SE
USA 267 3.3 21:30:33 10° ENE 21:36:56 53° SE 21:43:18 10° SSW
ARIANE 5 R/B 3.1 21:35:43 27° SSW 21:37:55 54° W 21:42:16 10° NNW
GP-B 3.0 21:37:26 10° N 21:41:54 80° E 21:43:35 38° S
Cosmos 2341 Rocket 4.0 21:37:09 10° N 21:43:30 84° W 21:47:01 28° S
Cosmos 2360 Rocket 4.1 21:41:26 10° N 21:45:45 21° NE 21:50:01 10° E
SAR-Lupe-4 3.4 21:42:21 10° NNE 21:45:57 83° ESE 21:46:46 51° S
Cosmos 864 Rocket 4.4 21:46:37 10° N 21:52:49 79° E 21:55:52 32° SSE
Okean 1-7 Rocket 3.5 21:58:40 43° S 22:00:06 83° E 22:04:38 10° N
Cosmos 1892 3.4 22:02:06 31° SW 22:03:28 47° WNW 22:07:08 10° N
Cosmos 1758 Rocket 4.0 22:08:36 40° ESE 22:09:15 43° E 22:13:25 10° NNE
Cosmos 2181 Rocket 4.0 22:07:21 28° SSW 22:10:51 76° W 22:17:07 10° N
USA 234 3.7 22:04:42 10° ESE 22:11:02 59° NNE 22:17:27 10° NW
Cosmos 1633 2.7 22:12:09 53° E 22:12:09 53° E 22:15:26 10° NNE
Cosmos 1992 Rocket 4.1 22:15:18 27° SSW 22:18:08 72° WNW 22:23:24 10° NNE
Cosmos 1980 Rocket 3.2 22:13:34 10° NW 22:18:42 36° WSW 22:20:52 26° SSW
Cosmos 1821 Rocket 4.1 22:12:39 10° N 22:18:52 64° E 22:21:23 36° SSE
SL-16 R/B 2.4 22:13:21 10° NNW 22:19:01 66° ENE 22:21:23 35° SE
Cosmos 1486 Rocket 4.0 22:14:12 10° NNW 22:19:24 71° WSW 22:21:05 43° S
SL-4 R/B 4.0 22:23:23 14° ENE 22:23:23 14° ENE 22:24:03 10° ENE
Cosmos 1812 Rocket 3.6 22:16:43 10° N 22:21:12 73° E 22:22:08 53° SSE
Cosmos 2219 Rocket 4.4 22:18:46 10° N 22:22:47 19° NE 22:26:47 10° E
Cosmos-2242 2.9 22:26:17 10° N 22:30:32 72° E 22:31:12 59° SE
ATLAS 5 CENTAUR R/B 2.0 22:29:23 25° WSW 22:31:18 51° NW 22:35:24 10° NNE
Cosmos 1602 Rocket 3.5 22:32:11 54° SSW 22:33:07 78° W 22:37:27 10° N
Cosmos 1869 4.1 22:30:54 10° NNW 22:34:34 40° W 22:35:09 37° WSW
Terra 4.3 22:36:24 10° WSW 22:38:02 12° W 22:39:40 10° WNW
ERS-2 3.5 22:35:01 10° NE 22:37:40 27° E 22:37:40 27° E
Nadezhda 3 Rocket 3.9 22:36:22 40° SSE 22:38:40 72° E 22:44:48 10° NNE
ALOS 2 2.5 22:39:49 58° SSE 22:40:37 80° ENE 22:45:02 10° N
FALCON 9 DEB 4.2 22:40:11 10° WNW 22:42:17 35° WNW 22:42:17 35° WNW
Cosmos 1354 Rocket 3.9 22:42:20 10° NNW 22:47:40 82° WSW 22:49:06 50° S
ADEOS Rocket 3.5 22:45:43 36° SSE 22:49:11 90° ENE 22:57:00 10° NNW
BREEZE-M DEB (TANK) 4.2 22:45:47 10° WNW 22:49:23 74° NNE 23:04:38 10° ESE
Cosmos 1825 3.9 22:49:40 21° W 22:50:48 24° WNW 22:53:55 10° NNW
Cosmos 2322 Rocket 2.1 22:48:47 10° NNW 22:54:31 88° ENE 22:56:24 45° SSE
Cosmos 1503 Rocket 4.3 22:52:13 10° NNW 22:57:23 55° WSW 22:58:35 45° SSW
Cosmos 1953 Rocket 3.8 22:58:43 51° ESE 22:59:13 54° E 23:03:32 10° NNE
PSLV R/B 4.2 22:57:49 10° NNE 23:02:23 45° E 23:03:01 42° ESE
USA 276 4.2 23:01:40 10° WNW 23:02:49 21° WNW 23:02:49 21° WNW
Cosmos 1777 Rocket 3.9 23:00:11 10° NNW 23:05:30 87° WSW 23:06:53 51° SSE
Cosmos 1825 Rocket 3.5 23:08:17 63° SW 23:08:54 76° W 23:13:15 10° N
Cosmos 2333 Rocket 2.9 23:04:09 10° NNW 23:09:46 49° ENE 23:12:51 25° ESE
CENTAUR R/B 3.9 23:09:34 19° ESE 23:10:22 20° ESE 23:14:50 10° ENE
Gbstr 26 Del rocket 2.9 23:11:09 66° S 23:11:36 72° SSE 23:16:43 10° ENE
SJ 16-02 1.5 23:07:36 10° NNW 23:11:57 56° WSW 23:12:19 54° SW
COSMOS 2487 4.4 23:14:00 17° ENE 23:14:00 17° ENE 23:15:12 10° NE
Cosmos 1340 Rocket 2.6 23:13:04 79° ESE 23:13:09 80° E 23:17:07 10° NNE
H-2A R/B 4.4 23:15:56 10° N 23:19:54 41° WNW 23:20:55 35° WSW
USA 267 3.8 23:13:36 10° NE 23:19:59 57° NNW 23:26:21 10° WSW
Celestis-02/Orion 38 4.5 23:19:53 47° SSE 23:21:25 88° ENE 23:26:32 10° NNW
Meteor 2-3 Rocket 4.4 23:20:57 33° SE 23:22:33 41° E 23:27:45 10° NNE
Cosmos 2058 3.4 23:26:08 46° WSW 23:26:44 50° WNW 23:30:50 10° N
Cosmos 2221 2.5 23:23:18 10° N 23:27:41 72° E 23:28:17 61° SE
Cosmos 1606 3.8 23:24:48 10° NNW 23:28:16 32° W 23:28:16 32° W
Cosmos 1842 Rocket 3.9 23:25:56 10° N 23:30:22 58° ENE 23:31:14 48° ESE
Cosmos 2360 Rocket 2.1 23:24:42 10° NNW 23:30:23 76° WSW 23:32:00 48° S
Cosmos 1934 Rocket 3.9 23:24:56 10° NNW 23:31:01 74° W 23:33:06 43° SSW
Nimbus 7 Rocket 4.3 23:28:30 10° NNE 23:34:29 87° ESE 23:36:36 43° SSW
Cosmos 2333 4.3 23:29:08 10° NNW 23:34:56 76° ENE 23:37:21 37° SE
Resurs 1-4 Rocket 4.2 23:32:56 10° NE 23:35:49 15° E 23:38:01 12° ESE
Cosmos 1782 3.8 23:32:49 10° N 23:36:30 35° ENE 23:37:13 33° E
Cosmos 1833 4.1 23:39:57 44° SW 23:41:50 82° WNW 23:47:28 10° NNE
Cosmos 44 3.1 23:41:21 56° SW 23:42:17 82° NW 23:46:47 10° NE
CZ-2D R/B 4.1 23:41:18 10° NE 23:44:31 16° E 23:46:39 13° ESE
Cosmos 1727 Rocket 4.3 23:51:12 36° SSE 23:53:43 61° E 23:59:54 10° NNE
Cosmos 2237 Rocket 4.2 23:50:11 10° N 23:54:47 24° NE 23:59:20 10° ESE
